Torna al catalogo

COSMOS 1624

AttivoMilitareLEO
NORAD 15482·PAYLOAD·🇷🇺 Russia

Lanciato Jan 17, 1985 da Plesetsk Cosmodrome

Loading…

Prossimi Passaggi (prossime 24 ore)

TLE

AggiornatoSource: Space-Track

Epoca: Sep 14, 2026, 08:03 UTC

1 15482U 85006A   26257.33560916  .00000073  00000-0  35581-4 0  9990
2 15482  74.0431  30.6158 0015401 252.7893 127.6912 14.33989082177045

Traccia COSMOS 1624 in tempo reale con AllMySat

Download on the App Store